"Timestamp","TZ","WindDir_Mean (deg)","WindSpd_Mean (km/h)","WindSpd_Min (km/h)","WindSpd_Max (km/h)","Temp_Mean (deg)","RH_Mean (%)","MSLP_Mean (hPa)","Rain_Acc (mm)","Rain_Intensity (mm/h)","Hail_Acc (hits/cm2)","Hail_Intensity (hits/cm2hr)","Solar_Mean (W/m2)"
2018/11/05 00:00:00.007,n,14,5.76,5.4,5.76,24.2,74,1011.52,0,0,0,0,0.025215
2018/11/05 00:01:00.000,n,16,4.68,4.32,4.68,24.2,74.1,1011.52,0,0,0,0,0.028725
2018/11/05 00:02:00.001,n,11,7.56,6.84,7.92,24.2,74,1011.52,0,0,0,0,0.024376
2018/11/05 00:03:00.000,n,8,2.88,1.8,4.32,24.2,74,1011.52,0,0,0,0,0.031319
2018/11/05 00:04:00.000,n,11,4.32,3.96,5.04,24.2,73.9,1011.52,0,0,0,0,0.025215
2018/11/05 00:05:00.000,n,351,5.4,5.04,6.12,24.2,74,1011.52,0,0,0,0,0.026093
2018/11/05 00:06:00.005,n,6,3.96,3.24,4.68,24.2,74.1,1011.52,0,0,0,0,0.028725
2018/11/05 00:07:00.002,n,25,3.24,2.16,3.96,24.2,74.2,1011.52,0,0,0,0,0.025215
2018/11/05 00:08:00.000,n,4,4.68,4.32,5.4,24.2,74.2,1011.52,0,0,0,0,0.027809
2018/11/05 00:09:00.014,n,4,4.68,4.68,5.04,24.2,74.1,1011.52,0,0,0,0,0.030441
2018/11/05 00:10:00.000,n,342,7.56,6.12,8.28,24.1,74,1011.52,0,0,0,0,0.026093
2018/11/05 00:11:00.000,n,344,6.48,5.76,7.2,24.1,75,1011.52,0,0,0,0,0.024376
2018/11/05 00:12:00.005,n,349,4.32,3.6,4.68,24.2,74.1,1011.52,0,0,0,0,0.022621
2018/11/05 00:13:00.001,n,353,3.96,3.24,4.68,24.2,74.2,1011.42,0,0,0,0,0.030441
2018/11/05 00:14:00.000,n,0,5.04,4.32,6.48,24.2,73.9,1011.42,0,0,0,0,0.025215
2018/11/05 00:15:00.000,n,12,2.52,0.72,3.24,24.2,73.8,1011.42,0,0,0,0,0.027809
2018/11/05 00:16:00.010,n,17,1.44,0.36,2.88,24.1,73.9,1011.32,0,0,0,0,0.024376
2018/11/05 00:17:00.008,n,0,3.6,3.24,3.96,24.1,74,1011.42,0,0,0,0,0.022621
2018/11/05 00:18:00.006,n,0,1.08,0.36,2.52,24.1,74,1011.42,0,0,0,0,0.023499
2018/11/05 00:19:00.000,n,338,5.04,3.96,5.4,24.1,73.9,1011.42,0,0,0,0,0.029602
2018/11/05 00:20:00.000,n,6,4.32,3.6,5.04,24.1,73.8,1011.42,0,0,0,0,0.028725
2018/11/05 00:21:00.005,n,332,1.8,0.36,2.16,24.1,73.9,1011.42,0,0,0,0,0.02697
2018/11/05 00:22:00.003,n,26,1.08,0.36,1.8,24.1,74.4,1011.42,0,0,0,0,0.022621
2018/11/05 00:23:00.000,n,325,0.72,0.36,1.08,24.2,74.2,1011.42,0,0,0,0,0.030441
2018/11/05 00:24:00.000,n,348,3.24,2.88,3.6,24.2,73.9,1011.42,0,0,0,0,0.027809
2018/11/05 00:25:00.010,n,256,0.72,0.36,1.08,24.1,73.9,1011.42,0,0,0,0,0.021744
2018/11/05 00:26:00.008,n,4,1.08,0.72,1.8,24.1,74.2,1011.32,0,0,0,0,0.023499
2018/11/05 00:27:00.005,n,20,1.08,0.36,2.16,24.1,74,1011.32,0,0,0,0,0.028725
2018/11/05 00:28:00.000,n,15,2.88,1.44,3.96,24.1,73.9,1011.32,0,0,0,0,0.025215
2018/11/05 00:29:00.000,n,30,0.72,0.36,1.44,24.1,73.9,1011.32,0,0,0,0,0.020866
2018/11/05 00:30:00.000,n,1,2.52,2.16,3.6,24.1,74,1011.32,0,0,0,0,0.020027
2018/11/05 00:31:00.000,n,15,1.44,0.36,2.16,24.1,74.1,1011.22,0,0,0,0,0.027847
2018/11/05 00:32:00.002,n,350,5.4,4.68,6.48,24.1,74.7,1011.22,0,0,0,0,0.037422
2018/11/05 00:33:00.000,n,326,3.96,3.6,5.04,24.1,74.7,1011.22,0,0,0,0,0.033913
2018/11/05 00:34:00.000,n,313,3.6,2.52,3.96,24.1,74.3,1011.22,0,0,0,0,0.033913
2018/11/05 00:35:00.011,n,338,2.88,2.16,3.24,24.1,74.8,1011.22,0,0,0,0,0.031319
2018/11/05 00:36:00.008,n,256,1.8,1.08,2.52,24.1,74.7,1011.22,0,0,0,0,0.033913
2018/11/05 00:37:00.000,n,246,5.04,3.6,5.76,24.1,74.9,1011.22,0,0,0,0,0.034828
2018/11/05 00:38:00.001,n,187,1.44,0.72,3.24,24.1,74.8,1011.22,0,0,0,0,0.028725
2018/11/05 00:39:00.000,n,223,4.68,4.68,5.04,24.1,74.7,1011.22,0,0,0,0,0.038261
2018/11/05 00:40:00.000,n,230,3.24,1.08,4.32,24.1,76.1,1011.22,0,0,0,0,0.029602
2018/11/05 00:41:00.000,n,269,6.12,5.04,7.2,24.1,76,1011.22,0,0,0,0,0.032196
2018/11/05 00:42:00.008,n,267,5.4,4.68,6.12,24.1,75.3,1011.22,0,0,0,0,0.033035
2018/11/05 00:43:00.005,n,234,4.32,3.96,4.68,24,75.3,1011.22,0,0,0,0,0.028725
2018/11/05 00:44:00.002,n,235,5.04,4.32,5.4,24,75.5,1011.22,0,0,0,0,0.030441
2018/11/05 00:45:00.015,n,236,4.32,2.88,5.04,24,75.9,1011.22,0,0,0,0,0.02697
2018/11/05 00:46:00.000,n,263,2.16,1.44,3.6,24,76,1011.22,0,0,0,0,0.02697
2018/11/05 00:47:00.000,n,250,4.68,3.96,5.4,23.9,76,1011.22,0,0,0,0,0.032196
2018/11/05 00:48:00.000,n,245,2.52,1.8,2.88,23.9,76.7,1011.22,0,0,0,0,0.033913
2018/11/05 00:49:00.004,n,239,5.04,4.32,6.12,23.9,76.1,1011.22,0,0,0,0,0.028725
2018/11/05 00:50:00.001,n,276,5.76,4.32,7.92,23.8,76.4,1011.22,0,0,0,0,0.030441
2018/11/05 00:51:00.000,n,221,5.04,4.32,5.4,23.8,76.4,1011.22,0,0,0,0,0.02697
2018/11/05 00:52:00.011,n,237,4.32,3.96,4.68,23.8,76.3,1011.22,0,0,0,0,0.026093
2018/11/05 00:53:00.008,n,253,5.4,3.24,6.84,23.8,77,1011.22,0,0,0,0,0.02697
2018/11/05 00:54:00.005,n,269,5.04,4.32,5.4,23.8,77.1,1011.22,0,0,0,0,0.025253
2018/11/05 00:55:00.000,n,221,5.76,3.96,6.48,23.8,76.4,1011.12,0,0,0,0,0.031319
2018/11/05 00:56:00.000,n,225,2.16,1.08,2.88,23.7,76.2,1011.12,0,0,0,0,0.027847
2018/11/05 00:57:00.000,n,239,4.32,3.96,5.04,23.7,76.7,1011.12,0,0,0,0,0.033035
2018/11/05 00:58:00.000,n,257,2.16,1.08,3.24,23.7,76.5,1011.12,0,0,0,0,0.02697
2018/11/05 00:59:00.007,n,242,3.6,1.44,5.76,23.7,76.7,1011.12,0,0,0,0,0.027847
2018/11/05 01:00:00.004,n,300,1.44,0.72,3.24,23.7,77.3,1011.02,0,0,0,0,0.02697
2018/11/05 01:01:00.002,n,236,2.88,2.52,3.24,23.7,76.6,1011.02,0,0,0,0,0.025253
2018/11/05 01:02:00.000,n,209,4.32,2.16,6.84,23.7,76.3,1011.02,0,0,0,0,0.032196
2018/11/05 01:03:00.013,n,255,4.68,3.96,5.04,23.7,76.9,1011.02,0,0,0,0,0.029602
2018/11/05 01:04:00.000,n,125,0.72,0.36,1.44,23.7,76.8,1011.02,0,0,0,0,0.026093
2018/11/05 01:05:00.000,n,193,1.8,1.08,3.24,23.7,76.5,1011.02,0,0,0,0,0.029602
2018/11/05 01:06:00.004,n,329,4.32,3.24,6.12,23.6,76.6,1011.02,0,0,0,0,0.029602
2018/11/05 01:07:00.001,n,256,1.8,1.08,2.52,23.6,76.7,1011.02,0,0,0,0,0.028725
2018/11/05 01:08:00.000,n,295,2.88,1.8,4.68,23.7,77,1011.02,0,0,0,0,0.024376
2018/11/05 01:09:00.000,n,291,3.96,3.24,5.4,23.7,77.6,1011.02,0,0,0,0,0.034828
2018/11/05 01:10:00.008,n,245,4.32,3.6,4.68,23.7,76.8,1011.02,0,0,0,0,0.023499
2018/11/05 01:11:00.005,n,229,3.96,3.96,4.32,23.7,76,1011.02,0,0,0,0,0.031319
2018/11/05 01:12:00.002,n,218,2.52,2.52,2.88,23.6,76,1011.02,0,0,0,0,0.028725
2018/11/05 01:13:00.000,n,275,4.32,3.24,4.68,23.6,76.3,1011.02,0,0,0,0,0.020866
2018/11/05 01:14:00.000,n,259,3.24,2.88,3.6,23.6,76.2,1011.02,0,0,0,0,0.02697
2018/11/05 01:15:00.000,n,231,4.32,3.24,4.68,23.5,76.2,1011.02,0,0,0,0,0.025253
2018/11/05 01:16:00.007,n,266,6.12,6.12,6.48,23.5,76.3,1011.02,0,0,0,0,0.021744
2018/11/05 01:17:00.003,n,265,3.6,0.72,5.04,23.6,76.9,1011.02,0,0,0,0,0.024376
2018/11/05 01:18:00.002,n,252,6.12,5.76,6.12,23.6,76.5,1011.02,0,0,0,0,0.027847
2018/11/05 01:19:00.000,n,260,5.4,3.96,6.12,23.5,76.9,1011.02,0,0,0,0,0.022621
2018/11/05 01:20:00.012,n,277,4.32,3.96,4.68,23.5,76.8,1010.92,0,0,0,0,0.023499
2018/11/05 01:21:00.009,n,258,3.96,3.96,4.32,23.5,76.7,1010.92,0,0,0,0,0.020866
2018/11/05 01:22:00.000,n,248,4.32,3.96,4.32,23.5,76.7,1010.92,0,0,0,0,0.021744
2018/11/05 01:23:00.003,n,242,2.52,1.8,3.6,23.5,76.8,1010.92,0,0,0,0,0.025253
2018/11/05 01:24:00.000,n,21,0.72,0.36,1.08,23.5,76.8,1010.82,0,0,0,0,0.022621
2018/11/05 01:25:00.000,n,143,1.08,0.72,1.44,23.4,76.7,1010.82,0,0,0,0,0.023499
2018/11/05 01:26:00.000,n,299,2.88,2.52,3.24,23.5,77,1010.82,0,0,0,0,0.02697
2018/11/05 01:27:00.008,n,7,2.16,1.08,2.88,23.4,76.3,1010.82,0,0,0,0,0.022621
2018/11/05 01:28:00.005,n,312,1.08,0.72,1.44,23.4,76,1010.82,0,0,0,0,0.024376
2018/11/05 01:29:00.001,n,247,3.96,3.6,5.04,23.4,75.8,1010.82,0,0,0,0,0.020866
2018/11/05 01:30:00.015,n,342,1.44,1.44,1.44,23.3,75.8,1010.82,0,0,0,0,0.026093
2018/11/05 01:31:00.000,n,66,1.08,0.72,1.44,23.3,75.7,1010.82,0,0,0,0,0.026093
2018/11/05 01:32:00.000,n,35,3.96,1.44,5.04,23.3,75.7,1010.82,0,0,0,0,0.026093
2018/11/05 01:33:00.000,n,10,5.04,4.68,5.76,23.3,75.6,1010.82,0,0,0,0,0.026093
2018/11/05 01:34:00.004,n,23,3.24,0.36,4.68,23.3,74.8,1010.82,0,0,0,0,0.021744
2018/11/05 01:35:00.001,n,301,2.16,0.72,3.24,23.3,74.8,1010.82,0,0,0,0,0.021744
2018/11/05 01:36:00.000,n,327,4.68,3.6,5.4,23.3,75.8,1010.82,0,0,0,0,0.01915
2018/11/05 01:37:00.011,n,66,1.8,1.08,2.88,23.3,74.8,1010.82,0,0,0,0,0.01915
2018/11/05 01:38:00.008,n,11,7.56,6.84,8.28,23.3,74,1010.82,0,0,0,0,0.02697
2018/11/05 01:39:00.003,n,353,4.68,3.6,6.12,23.2,74.3,1010.82,0,0,0,0,0.033913
2018/11/05 01:40:00.000,n,61,2.88,1.08,3.96,23.2,73.7,1010.82,0,0,0,0,0.029564
2018/11/05 01:41:00.000,n,347,4.68,2.88,6.12,23.2,73.7,1010.82,0,0,0,0,0.030441
2018/11/05 01:42:00.000,n,347,1.8,1.44,2.16,23.3,73.8,1010.82,0,0,0,0,0.030441
2018/11/05 01:43:00.000,n,356,3.96,3.6,4.68,23.3,73.8,1010.82,0,0,0,0,0.028687
2018/11/05 01:44:00.007,n,357,4.32,3.6,5.04,23.3,73.2,1010.82,0,0,0,0,0.027847
2018/11/05 01:45:00.004,n,356,3.24,2.88,3.96,23.3,73.6,1010.82,0,0,0,0,0.02697
2018/11/05 01:46:00.001,n,238,2.16,1.8,2.16,23.3,73.6,1010.82,0,0,0,0,0.027847
2018/11/05 01:47:00.014,n,252,3.6,3.24,3.96,23.3,73.5,1010.82,0,0,0,0,0.028687
2018/11/05 01:48:00.010,n,246,3.24,3.24,3.6,23.3,73.4,1010.82,0,0,0,0,0.02346
2018/11/05 01:49:00.000,n,239,3.6,3.24,3.96,23.3,73.5,1010.82,0,0,0,0,0.020866
2018/11/05 01:50:00.000,n,271,0.36,0,0.36,23.3,73.6,1010.82,0,0,0,0,0.027847
2018/11/05 01:51:00.000,n,235,5.4,4.68,5.76,23.3,73.8,1010.82,0,0,0,0,0.020866
2018/11/05 01:52:00.000,n,252,3.96,2.52,5.4,23.3,73.8,1010.82,0,0,0,0,0.02697
2018/11/05 01:53:00.000,n,268,4.32,3.24,5.4,23.3,73.9,1010.82,0,0,0,0,0.02346
2018/11/05 01:54:00.008,n,275,6.12,5.4,6.84,23.3,74.9,1010.72,0,0,0,0,0.028687
2018/11/05 01:55:00.005,n,263,5.4,5.04,5.4,23.3,74.4,1010.72,0,0,0,0,0.019112
2018/11/05 01:56:00.002,n,264,5.04,3.24,5.4,23.3,74.1,1010.82,0,0,0,0,0.022621
2018/11/05 01:57:00.016,n,268,4.68,3.24,6.48,23.3,74.7,1010.82,0,0,0,0,0.019112
2018/11/05 01:58:00.000,n,242,5.04,4.68,5.4,23.3,74.3,1010.82,0,0,0,0,0.020866
2018/11/05 01:59:00.000,n,241,4.32,4.32,4.68,23.2,74.3,1010.82,0,0,0,0,0.026093
2018/11/05 02:00:00.000,n,243,2.16,2.16,2.52,23.2,74.4,1010.82,0,0,0,0,0.028687
2018/11/05 02:01:00.003,n,264,2.88,2.16,3.6,23.2,74.5,1010.82,0,0,0,0,0.020866
2018/11/05 02:02:00.001,n,264,3.96,3.6,4.32,23.2,75.3,1010.82,0,0,0,0,0.019112
2018/11/05 02:03:00.000,n,269,2.88,2.52,3.24,23.2,75.9,1010.82,0,0,0,0,0.018272
2018/11/05 02:04:00.012,n,244,2.16,1.08,2.88,23.3,76.1,1010.82,0,0,0,0,0.018272
2018/11/05 02:05:00.008,n,162,0.36,0,0.72,23.3,75.5,1010.82,0,0,0,0,0.021744
2018/11/05 02:06:00.005,n,156,0.36,0.36,0.72,23.2,75.8,1010.82,0,0,0,0,0.018272
2018/11/05 02:07:00.000,n,137,2.52,2.52,2.88,23.2,76,1010.82,0,0,0,0,0.019112
2018/11/05 02:08:00.000,n,323,0.36,0.36,0.72,23.2,76.2,1010.92,0,0,0,0,0.020866
2018/11/05 02:09:00.000,n,136,1.44,1.08,1.8,23.2,76.6,1010.92,0,0,0,0,0.021744
2018/11/05 02:10:00.000,n,32,1.08,0.36,1.44,23.3,77,1010.92,0,0,0,0,0.020866
2018/11/05 02:11:00.007,n,196,2.16,1.44,2.52,23.3,77,1010.82,0,0,0,0,0.024338
2018/11/05 02:12:00.004,n,197,0.72,0.36,1.44,23.3,77.4,1010.92,0,0,0,0,0.016518
2018/11/05 02:13:00.000,n,211,1.44,1.08,1.8,23.3,77.3,1010.92,0,0,0,0,0.015678
2018/11/05 02:14:00.000,n,127,1.44,0.36,2.52,23.3,77.7,1010.92,0,0,0,0,0.029602
2018/11/05 02:15:00.009,n,97,0.72,0.36,0.72,23.3,77.9,1010.92,0,0,0,0,0.032196
2018/11/05 02:16:00.000,n,189,2.52,2.52,2.88,23.3,78,1010.92,0,0,0,0,0.036545
2018/11/05 02:17:00.000,n,285,2.52,1.44,3.24,23.3,78.3,1010.92,0,0,0,0,0.033073
2018/11/05 02:18:00.000,n,205,2.16,1.8,2.16,23.2,78.4,1010.92,0,0,0,0,0.031319
2018/11/05 02:19:00.000,n,9,1.44,0.72,2.16,23.2,78.5,1010.92,0,0,0,0,0.02697
2018/11/05 02:20:00.000,n,264,0.72,0.36,1.08,23.2,78.6,1010.92,0,0,0,0,0.035706
2018/11/05 02:21:00.009,n,121,1.44,1.08,1.8,23.2,78.9,1010.92,0,0,0,0,0.030479
2018/11/05 02:22:00.005,n,166,1.8,1.08,2.52,23.2,79,1010.92,0,0,0,0,0.028725
2018/11/05 02:23:00.002,n,137,1.8,1.08,3.24,23.2,79.2,1010.92,0,0,0,0,0.030479
2018/11/05 02:24:00.015,n,143,2.52,1.8,2.52,23.2,79.6,1010.92,0,0,0,0,0.026131
2018/11/05 02:25:00.000,n,128,2.16,1.08,2.52,23.2,79.8,1010.92,0,0,0,0,0.026131
2018/11/05 02:26:00.000,n,158,2.16,1.8,2.16,23.1,80,1010.92,0,0,0,0,0.029602
2018/11/05 02:27:00.000,n,179,2.88,2.52,3.24,23.1,80.2,1010.92,0,0,0,0,0.02697
2018/11/05 02:28:00.004,n,178,2.16,1.44,2.52,23.1,80.4,1010.92,0,0,0,0,0.031319
2018/11/05 02:29:00.000,n,229,1.44,1.44,1.8,23,80.4,1010.92,0,0,0,0,0.030479
2018/11/05 02:30:00.000,n,236,2.52,2.52,2.88,23,80.4,1010.92,0,0,0,0,0.030479
2018/11/05 02:31:00.010,n,230,2.52,2.16,2.88,23,80.5,1010.92,0,0,0,0,0.031319
2018/11/05 02:32:00.007,n,239,2.88,1.8,3.24,22.9,80.6,1010.92,0,0,0,0,0.030479
2018/11/05 02:33:00.004,n,231,2.16,1.8,2.16,22.9,80.7,1010.92,0,0,0,0,0.033951
2018/11/05 02:34:00.003,n,213,3.24,2.88,3.6,22.9,80.9,1010.92,0,0,0,0,0.02697
2018/11/05 02:35:00.000,n,232,2.88,2.52,3.6,22.9,80.9,1010.92,0,0,0,0,0.032196
2018/11/05 02:36:00.000,n,199,2.16,1.44,2.16,22.9,81,1010.92,0,0,0,0,0.030479
2018/11/05 02:37:00.000,n,226,2.16,1.8,2.52,22.9,81,1010.92,0,0,0,0,0.028725
2018/11/05 02:38:00.006,n,168,2.16,1.8,2.52,22.9,81.1,1010.92,0,0,0,0,0.029602
2018/11/05 02:39:00.004,n,243,1.44,1.08,1.8,22.9,81.1,1010.92,0,0,0,0,0.026131
2018/11/05 02:40:00.000,n,252,3.24,2.88,3.96,22.9,81.2,1010.92,0,0,0,0,0.023537
2018/11/05 02:41:00.000,n,291,1.8,1.08,3.24,22.9,81.3,1010.92,0,0,0,0,0.030479
2018/11/05 02:42:00.011,n,245,2.16,2.16,2.16,22.9,81.4,1010.92,0,0,0,0,0.032196
2018/11/05 02:43:00.000,n,264,1.08,0.72,1.44,22.8,81.4,1010.92,0,0,0,0,0.024376
2018/11/05 02:44:00.000,n,211,1.08,0.36,2.16,22.8,81.6,1010.92,0,0,0,0,0.025253
2018/11/05 02:45:00.002,n,293,1.8,1.08,2.88,22.8,81.6,1010.92,0,0,0,0,0.026131
2018/11/05 02:46:00.000,n,214,1.08,1.08,1.44,22.8,81.5,1010.92,0,0,0,0,0.022621
2018/11/05 02:47:00.000,n,321,2.16,1.44,2.88,22.8,81.7,1010.92,0,0,0,0,0.020905
2018/11/05 02:48:00.010,n,226,1.44,1.08,1.8,22.8,81.7,1010.92,0,0,0,0,0.021744
2018/11/05 02:49:00.007,n,150,0.72,0.36,0.72,22.8,81.5,1010.92,0,0,0,0,0.024376
2018/11/05 02:50:00.005,n,171,1.08,0.36,1.44,22.8,81.6,1011.02,0,0,0,0,0.023537
2018/11/05 02:51:00.002,n,206,2.16,2.16,2.52,22.8,81.6,1011.02,0,0,0,0,0.024376
2018/11/05 02:52:00.000,n,191,2.88,2.88,3.24,22.8,81.7,1011.02,0,0,0,0,0.025253
2018/11/05 02:53:00.000,n,199,4.32,3.96,4.32,22.8,81.9,1011.12,0,0,0,0,0.023537
2018/11/05 02:54:00.000,n,196,3.6,3.24,3.96,22.8,81.9,1011.12,0,0,0,0,0.023537
2018/11/05 02:55:00.007,n,202,1.8,1.44,2.52,22.7,82,1011.12,0,0,0,0,0.024376
2018/11/05 02:56:00.004,n,182,4.32,3.6,5.04,22.7,82.1,1011.12,0,0,0,0,0.026131
2018/11/05 02:57:00.000,n,181,3.24,3.24,3.6,22.7,82.2,1011.12,0,0,0,0,0.021744
2018/11/05 02:58:00.000,n,180,4.32,3.96,4.68,22.7,82.3,1011.12,0,0,0,0,0.033951
2018/11/05 02:59:00.010,n,174,5.76,5.4,5.76,22.7,82.5,1011.12,0,0,0,0,0.034828
2018/11/05 03:00:00.008,n,145,2.88,2.16,3.6,22.7,82.6,1011.12,0,0,0,0,0.033112
2018/11/05 03:01:00.000,n,173,1.8,1.08,2.52,22.7,82.6,1011.12,0,0,0,0,0.040054
2018/11/05 03:02:00.001,n,145,2.88,1.8,3.24,22.7,82.8,1011.12,0,0,0,0,0.03746
2018/11/05 03:03:00.000,n,204,0.72,0.72,1.44,22.7,82.7,1011.12,0,0,0,0,0.0383
2018/11/05 03:04:00.000,n,182,1.8,1.44,2.16,22.6,82.8,1011.12,0,0,0,0,0.032234
2018/11/05 03:05:00.000,n,144,3.24,2.88,3.6,22.6,82.9,1011.12,0,0,0,0,0.03746
2018/11/05 03:06:00.006,n,158,2.16,0.72,3.6,22.6,82.9,1011.02,0,0,0,0,0.03746
2018/11/05 03:07:00.003,n,194,3.24,2.52,3.6,22.6,82.9,1011.02,0,0,0,0,0.036583
2018/11/05 03:08:00.000,n,220,2.16,2.16,2.52,22.6,82.9,1011.02,0,0,0,0,0.031357
2018/11/05 03:09:00.014,n,233,1.44,1.08,1.8,22.5,82.9,1011.02,0,0,0,0,0.033951
2018/11/05 03:10:00.000,n,241,2.16,2.16,2.16,22.5,82.9,1011.02,0,0,0,0,0.032234
2018/11/05 03:11:00.000,n,224,1.8,1.44,1.8,22.5,83,1011.02,0,0,0,0,0.030479
2018/11/05 03:12:00.000,n,211,1.8,1.8,2.16,22.5,83,1011.02,0,0,0,0,0.030479
2018/11/05 03:13:00.002,n,159,2.52,1.8,2.88,22.5,83.1,1011.02,0,0,0,0,0.034828
2018/11/05 03:14:00.000,n,200,2.16,1.8,2.52,22.5,83.1,1011.02,0,0,0,0,0.030479
2018/11/05 03:15:00.000,n,186,2.88,2.52,2.88,22.5,83.2,1011.12,0,0,0,0,0.031357
2018/11/05 03:16:00.010,n,212,1.8,1.8,2.16,22.5,83.2,1011.12,0,0,0,0,0.029602
2018/11/05 03:17:00.006,n,203,1.08,0.36,1.44,22.5,83.1,1011.12,0,0,0,0,0.029602
2018/11/05 03:18:00.004,n,140,1.8,1.44,1.8,22.5,83.2,1011.12,0,0,0,0,0.028725
2018/11/05 03:19:00.001,n,216,2.52,2.52,2.88,22.5,83.2,1011.12,0,0,0,0,0.027008
2018/11/05 03:20:00.000,n,177,3.24,2.88,3.6,22.5,83.3,1011.12,0,0,0,0,0.035706
2018/11/05 03:21:00.000,n,202,3.96,3.6,3.96,22.4,83.3,1011.12,0,0,0,0,0.032234
2018/11/05 03:22:00.000,n,176,2.88,2.52,3.24,22.4,83.3,1011.12,0,0,0,0,0.030479
2018/11/05 03:23:00.006,n,205,1.8,1.08,2.16,22.4,83.3,1011.12,0,0,0,0,0.023537
2018/11/05 03:24:00.004,n,196,1.44,1.08,2.16,22.4,83.3,1011.12,0,0,0,0,0.028725
2018/11/05 03:25:00.000,n,127,2.16,1.44,2.16,22.4,83.3,1011.12,0,0,0,0,0.031357
2018/11/05 03:26:00.014,n,154,1.8,1.8,1.8,22.4,83.2,1011.12,0,0,0,0,0.026131
2018/11/05 03:27:00.011,n,132,2.16,1.8,2.52,22.4,83.3,1011.12,0,0,0,0,0.026131
2018/11/05 03:28:00.000,n,215,1.8,1.08,2.16,22.4,83.3,1011.22,0,0,0,0,0.027885
2018/11/05 03:29:00.000,n,238,1.8,1.44,2.52,22.4,83.3,1011.22,0,0,0,0,0.032234
2018/11/05 03:30:00.002,n,252,3.96,3.6,4.68,22.3,83.3,1011.22,0,0,0,0,0.027008
2018/11/05 03:31:00.000,n,260,4.32,3.6,4.68,22.3,83.4,1011.32,0,0,0,0,0.027008
2018/11/05 03:32:00.000,n,250,3.24,2.88,3.96,22.3,83.5,1011.32,0,0,0,0,0.028725
2018/11/05 03:33:00.009,n,253,3.96,3.6,4.32,22.3,83.5,1011.32,0,0,0,0,0.027008
2018/11/05 03:34:00.008,n,244,4.68,4.32,5.04,22.3,83.5,1011.32,0,0,0,0,0.028725
2018/11/05 03:35:00.005,n,253,5.04,4.32,5.04,22.3,83.5,1011.32,0,0,0,0,0.025253
2018/11/05 03:36:00.002,n,259,5.76,5.4,6.12,22.3,83.5,1011.42,0,0,0,0,0.027885
2018/11/05 03:37:00.000,n,260,5.76,5.4,5.76,22.3,83.4,1011.42,0,0,0,0,0.027885
2018/11/05 03:38:00.000,n,250,3.96,2.88,4.32,22.3,83.5,1011.42,0,0,0,0,0.027008
2018/11/05 03:39:00.000,n,243,3.24,3.24,3.6,22.3,83.7,1011.42,0,0,0,0,0.026131
2018/11/05 03:40:00.000,n,241,1.08,0.36,2.16,22.3,83.6,1011.42,0,0,0,0,0.025253
2018/11/05 03:41:00.004,n,235,2.52,2.16,2.52,22.2,83.6,1011.42,0,0,0,0,0.027008
2018/11/05 03:42:00.001,n,260,3.6,2.16,3.96,22.2,83.7,1011.42,0,0,0,0,0.026131
2018/11/05 03:43:00.000,n,263,2.52,2.16,2.52,22.2,83.6,1011.42,0,0,0,0,0.027885
2018/11/05 03:44:00.012,n,272,2.16,1.44,2.52,22.2,83.7,1011.42,0,0,0,0,0.027885
2018/11/05 03:45:00.011,n,230,2.16,1.44,2.88,22.2,83.8,1011.42,0,0,0,0,0.022659
2018/11/05 03:46:00.000,n,240,2.52,1.44,2.88,22.2,84.2,1011.42,0,0,0,0,0.01915
2018/11/05 03:47:00.003,n,230,1.44,1.08,1.8,22.3,83.9,1011.42,0,0,0,0,0.028725
2018/11/05 03:48:00.001,n,266,2.52,1.8,2.88,22.2,83.8,1011.42,0,0,0,0,0.024338
2018/11/05 03:49:00.000,n,225,1.8,0.72,2.52,22.2,83.8,1011.42,0,0,0,0,0.024338
2018/11/05 03:50:00.000,n,161,1.08,0.72,1.44,22.2,83.7,1011.42,0,0,0,0,0.024338
2018/11/05 03:51:00.008,n,243,1.8,1.44,2.16,22.2,83.7,1011.42,0,0,0,0,0.027847
2018/11/05 03:52:00.005,n,227,2.16,2.16,2.52,22.2,83.7,1011.42,0,0,0,0,0.025253
2018/11/05 03:53:00.003,n,185,2.16,1.8,2.52,22.2,83.7,1011.42,0,0,0,0,0.028725
2018/11/05 03:54:00.001,n,246,3.24,2.16,3.6,22.2,83.7,1011.42,0,0,0,0,0.028725
2018/11/05 03:55:00.000,n,245,5.04,4.32,5.4,22.2,84,1011.42,0,0,0,0,0.023499
2018/11/05 03:56:00.000,n,259,3.6,3.24,4.32,22.2,84.5,1011.52,0,0,0,0,0.02697
2018/11/05 03:57:00.000,n,268,3.96,3.6,4.32,22.2,83.8,1011.42,0,0,0,0,0.021744
2018/11/05 03:58:00.000,n,249,2.16,1.8,3.6,22.2,83.9,1011.52,0,0,0,0,0.022621
2018/11/05 03:59:00.004,n,227,0.72,0.36,1.08,22.2,83.9,1011.52,0,0,0,0,0.026131
2018/11/05 04:00:00.002,n,159,0.72,0.36,1.08,22.2,84,1011.52,0,0,0,0,0.026131
2018/11/05 04:01:00.000,n,221,1.44,0.72,1.8,22.2,84,1011.52,0,0,0,0,0.029564
2018/11/05 04:02:00.012,n,290,0.72,0,1.8,22.2,84.1,1011.52,0,0,0,0,0.026131
2018/11/05 04:03:00.010,n,266,2.16,2.16,2.16,22.2,84.5,1011.52,0,0,0,0,0.026131
2018/11/05 04:04:00.000,n,252,2.88,2.52,3.24,22.3,84,1011.52,0,0,0,0,0.029564
2018/11/05 04:05:00.000,n,264,3.24,3.24,3.24,22.2,83.8,1011.52,0,0,0,0,0.027847
2018/11/05 04:06:00.002,n,248,2.52,2.52,3.24,22.2,83.8,1011.52,0,0,0,0,0.026131
2018/11/05 04:07:00.000,n,267,1.44,1.08,1.44,22.2,83.8,1011.52,0,0,0,0,0.020905
2018/11/05 04:08:00.000,n,116,1.44,1.08,2.16,22.2,83.9,1011.52,0,0,0,0,0.026131
2018/11/05 04:09:00.010,n,116,0.72,0,1.08,22.2,83.8,1011.52,0,0,0,0,0.021744
2018/11/05 04:10:00.007,n,106,1.44,1.44,1.8,22.2,83.7,1011.52,0,0,0,0,0.027847
2018/11/05 04:11:00.005,n,151,2.16,0.72,2.88,22.2,83.8,1011.52,0,0,0,0,0.018272
2018/11/05 04:12:00.002,n,113,2.16,1.8,2.52,22.2,83.7,1011.42,0,0,0,0,0.022621
2018/11/05 04:13:00.000,n,43,1.8,1.08,1.8,22.2,83.7,1011.42,0,0,0,0,0.023499
2018/11/05 04:14:00.000,n,32,1.08,0.36,1.8,22.2,83.7,1011.42,0,0,0,0,0.020027
2018/11/05 04:15:00.000,n,150,0.72,0.36,1.08,22.2,83.7,1011.42,0,0,0,0,0.020905
2018/11/05 04:16:00.000,n,42,3.24,2.88,3.24,22.2,83.7,1011.42,0,0,0,0,0.022621
2018/11/05 04:17:00.004,n,74,2.16,1.44,2.16,22.2,83.7,1011.42,0,0,0,0,0.022621
2018/11/05 04:18:00.002,n,82,2.52,2.16,2.52,22.2,83.7,1011.42,0,0,0,0,0.029564
2018/11/05 04:19:00.000,n,41,0.72,0.36,1.44,22.2,83.9,1011.42,0,0,0,0,0.026131
2018/11/05 04:20:00.013,n,121,2.52,2.52,2.88,22.2,83.7,1011.52,0,0,0,0,0.030479
2018/11/05 04:21:00.010,n,160,2.16,1.8,2.88,22.1,83.7,1011.52,0,0,0,0,0.023499
2018/11/05 04:22:00.000,n,161,3.24,2.88,3.6,22.1,83.9,1011.52,0,0,0,0,0.033913
2018/11/05 04:23:00.000,n,178,3.24,2.88,3.6,22.1,83.9,1011.52,0,0,0,0,0.031357
2018/11/05 04:24:00.000,n,182,3.24,3.24,3.6,22.1,83.9,1011.62,0,0,0,0,0.025253
2018/11/05 04:25:00.000,n,161,3.6,3.6,3.6,22.1,83.9,1011.62,0,0,0,0,0.025253
2018/11/05 04:26:00.000,n,150,1.8,1.44,2.52,22.1,84,1011.62,0,0,0,0,0.028725
2018/11/05 04:27:00.008,n,158,2.88,2.88,2.88,22.1,84.1,1011.52,0,0,0,0,0.028725
2018/11/05 04:28:00.005,n,136,1.44,0.72,2.16,22.1,84.2,1011.52,0,0,0,0,0.0383
2018/11/05 04:29:00.002,n,292,1.8,0.72,2.52,22.1,84.1,1011.52,0,0,0,0,0.040016
2018/11/05 04:30:00.001,n,257,2.52,2.16,2.88,22.1,84.1,1011.52,0,0,0,0,0.04612
2018/11/05 04:31:00.000,n,246,1.44,0.72,1.8,22.1,84.1,1011.52,0,0,0,0,0.053101
2018/11/05 04:32:00.000,n,31,0.72,0.36,1.08,22.1,84.1,1011.52,0,0,0,0,0.061798
2018/11/05 04:33:00.000,n,157,1.08,0.36,1.44,22.1,84.1,1011.62,0,0,0,0,0.070457
2018/11/05 04:34:00.006,n,211,3.24,2.88,3.24,22.1,84.1,1011.62,0,0,0,0,0.079193
2018/11/05 04:35:00.004,n,208,1.08,0.36,2.16,22.2,84.1,1011.62,0,0,0,0,0.099182
2018/11/05 04:36:00.000,n,269,2.52,2.16,2.52,22.2,84.1,1011.62,0,0,0,0,0.112228
2018/11/05 04:37:00.000,n,212,0.72,0.36,0.72,22.2,84.1,1011.62,0,0,0,0,0.137482
2018/11/05 04:38:00.011,n,302,1.08,0.72,1.08,22.2,84,1011.62,0,0,0,0,0.170517
2018/11/05 04:39:00.009,n,279,1.08,0.72,1.44,22.2,84,1011.62,0,0,0,0,0.21656
2018/11/05 04:40:00.000,n,240,1.8,1.44,2.16,22.2,84,1011.62,0,0,0,0,0.284348
2018/11/05 04:41:00.002,n,30,1.8,1.08,2.16,22.2,84,1011.62,0,0,0,0,0.39032
2018/11/05 04:42:00.000,n,0,1.08,0.72,1.08,22.1,84,1011.62,0,0,0,0,0.563049
2018/11/05 04:43:00.000,n,58,1.8,1.44,2.52,22.2,84,1011.62,0,0,0,0,0.748825
2018/11/05 04:44:00.000,n,25,1.8,1.44,1.8,22.2,84,1011.62,0,0,0,0,0.88192
2018/11/05 04:45:00.007,n,228,0.36,0,0.72,22.2,84.1,1011.62,0,0,0,0,1.064415
2018/11/05 04:46:00.005,n,189,1.08,0.72,1.8,22.2,84,1011.62,0,0,0,0,1.44268
2018/11/05 04:47:00.002,n,238,2.16,1.44,2.52,22.2,83.9,1011.72,0,0,0,0,1.635857
2018/11/05 04:48:00.000,n,227,2.88,2.52,3.24,22.2,83.9,1011.72,0,0,0,0,1.565704
2018/11/05 04:49:00.000,n,248,2.52,2.52,2.52,22.2,83.9,1011.72,0,0,0,0,1.648827
2018/11/05 04:50:00.000,n,246,2.88,2.52,2.88,22.1,83.9,1011.72,0,0,0,0,1.91349
2018/11/05 04:51:00.000,n,248,2.52,2.16,2.52,22.1,83.9,1011.72,0,0,0,0,2.171707
2018/11/05 04:52:00.005,n,207,1.8,1.44,2.16,22.1,83.9,1011.72,0,0,0,0,2.414208
2018/11/05 04:53:00.002,n,274,0.72,0.36,0.72,22.1,84.1,1011.72,0,0,0,0,2.675324
2018/11/05 04:54:00.000,n,313,0.72,0.36,0.72,22.1,84.1,1011.72,0,0,0,0,2.966309
2018/11/05 04:55:00.000,n,255,0.36,0.36,0.72,22.2,84.1,1011.72,0,0,0,0,3.38501
2018/11/05 04:56:00.011,n,80,0.72,0.36,1.44,22.2,84,1011.82,0,0,0,0,3.997231